Regional Weather Roundup
Issued by NWS

Home | Current Version | Previous Version | Graphics & Text | Print | Product List | Glossary On
Versions: 1 2 3 4 5 6 7 8 9 10 11 12 13 14 15 16 17 18 19 20 21 22 23 24 25 26 27 28 29 30 31 32 33 34 35 36 37 38 39 40 41 42 43 44 45 46 47 48 49 50
000
ASUS43 KBIS 282110
RWRND

NORTH DAKOTA REGIONAL WEATHER ROUNDUP
NATIONAL WEATHER SERVICE BISMARCK ND
400 PM CDT THU AUG 28 2014

NOTE: "FAIR" INDICATES FEW OR NO CLOUDS BELOW 12,000 FEET WITH NO
SIGNIFICANT WEATHER AND/OR OBSTRUCTIONS TO VISIBILITY.


NDZ001>003-009>011-017-282200-
NORTHWEST NORTH DAKOTA

CITY           SKY/WX    TMP DP  RH WIND       PRES   REMARKS
WILLISTON      MOSUNNY   89  53  29 SW12      29.80F
MINOT          SUNNY     86  54  33 S13       29.80F
MINOT AFB      SUNNY     86  55  33 SW12      29.79F
$$

NDZ018>021-031>035-040>046-282200-
SOUTHWEST NORTH DAKOTA

CITY           SKY/WX    TMP DP  RH WIND       PRES   REMARKS
BISMARCK       CLOUDY    74  67  78 S8        29.88F
DICKINSON      MOSUNNY   84  54  35 W6        29.86F
GARRISON         N/A     82  62  50 S7        29.84F
HETTINGER ARPT PTSUNNY   81  53  37 S8        29.90F
$$

NDZ004>008-012>016-024-026-027-054-282200-
NORTHEAST NORTH DAKOTA

CITY           SKY/WX    TMP DP  RH WIND       PRES   REMARKS
GRAND FORKS    PTSUNNY   76  66  71 S13       29.88F
GRND FRKS AFB  CLOUDY    74  69  82 SW13      29.89F
DEVILS LAKE    PTSUNNY   79  64  61 S15       29.84F
$$

NDZ022-023-025-028>030-036>039-047>053-282200-
SOUTHEAST NORTH DAKOTA

CITY           SKY/WX    TMP DP  RH WIND       PRES   REMARKS
FARGO          CLOUDY    72  64  76 S13       29.91F
JAMESTOWN      CLOUDY    71  65  81 S7        29.89F
$$




USA.gov is the U.S. government's official web portal to all federal, state and local government web resources and services.